Location: *
(37.5724°S, 58.0067°E)
Time: 15:32:25
(UTC+00:00)

Lacrosse 5 - Pass Details

Date: 20 January 2021
Orbit: 715 x 724 km, 57.0° (Epoch: 03 March)

Event Time Altitude Azimuth Distance (km) Brightness Sun altitude
Exits shadow 21:32:54 14° 239° (WSW) 1,951 4.2 -29.9°
Maximum altitude 21:35:08 18° 209° (SSW) 1,742 4.2 -29.8°
Drops below altitude 10° 21:38:41 10° 165° (SSE) 2,244 5.3 -29.5°
Sets 21:41:49 0° 146° (SSE) 3,170 6.4 -29.3°
